Location: Casa Rossa
(45.2389°N, 12.2056°E)
Time: 04:37:20
(UTC+00:00)

SL-8 R/B - Pass Details

Date: 14 July 2020
Orbit: 656 x 668 km, 48.4° (Epoch: 11 August)

Event Time Altitude Azimuth Distance (km) Brightness Sun altitude
Exits shadow 00:08:40 52° 145° (SE) 822 3.9 -22.1°
Drops below altitude 10° 00:13:15 10° 73° (ENE) 2,083 6.6 -21.9°
Sets 00:15:39 0° 69° (ENE) 2,995 7.6 -21.8°
